Location: Blackwater Beach
(38.5801°N, 75.1577°W)
Time: 10:18:38
(UTC+00:00)

SPOT 5 - Pass Details

Date: 13 February 2026
Orbit: 619 x 802 km, 98.0° (Epoch: 11 March)

Event Time Altitude Azimuth Distance (km) Brightness Sun altitude
Exits shadow 23:42:59 18° 61° (ENE) 1,776 4.3 -13.6°
Drops below altitude 10° 23:46:04 10° 23° (NNE) 2,278 5.2 -14.2°
Sets 23:49:07 0° 5° (N) 3,240 6.1 -14.8°
